Location: *
(51.2167°N, 10.0667°E)
Time: 22:59:39
(UTC+00:00)

Cosmos 1954 Rocket - Pass Details

Date: 12 December 2019
Orbit: 751 x 782 km, 74.0° (Epoch: 19 January)

Event Time Altitude Azimuth Distance (km) Brightness Sun altitude
Rises 17:37:03 0° 184° (S) 3,190 7.4 -21.4°
Reaches altitude 10° 17:39:28 10° 178° (S) 2,272 6.5 -21.8°
Enters shadow 17:43:49 45° 125° (SE) 1,028 4.3 -22.5°
